Showing default

KANOPUS-V 3, 43180

Orbit data source: Space-Track

KANOPUS-V 3, 43180 is a payload satellite owned by VNIIEM (CIS) in SSO that was launched on Thu, 01 Feb 2018 UTC via a SOYUZ-2-1A launch vehicle from the Vostochny Cosmodrome (VOSTO). Payload-class satellites include a variety of spacecraft equipped with specific instruments for various scientific and technological missions. These include communications satellites like Starlink; space stations such as the ISS; scientific satellites like the Hubble; Earth observation satellites from companies like Planet Labs, Umbra, and HawkEye 360; GPS; miniature CubeSats for education and research; and military/defense satellites.

Loading next visibility...
Identifier
43180, 2018-014A
Orbit
SSO
Country
Flag of CISCIS
Related business
Manufacturer
VNIIEM
Mission
Operational Civil Imaging
Bus & Motor
KANOPUS, Unknown motor
Mass
490 kg wet, 490 kg dry
Launch date (UTC)
2018-02-01 (8 years ago)
Launch vehicle
SOYUZ-2-1A
Launch site
Vostochny Cosmodrome (VOSTO)
Object type
Payload
Rocket body
Debris
Shape & HBR
Box + 2 Pan, 3.0 m
Radar Cross Section
1.665 m², Large (>1 m²)

Expand to show TLE details & history
Last TLE update: 13 hours ago

TLE from 13 hours ago
0 KANOPUS-V 3
1 43180U 18014A   25259.18352863 -.00000078  00000-0 -40951-6 0  9991
2 43180  97.3680 164.9304 0001773  94.8988 265.2451 15.22837093423017
Epoch: 2025-09-16T04:24Z
TLE epoch observation values (Epoch: 2025-09-16T04:24:16.873Z)
Latitude
-0.00006°
Longitude
103.48262°
Altitude
500.484 km
Speed
7.614 km/s
True Right ascension
10h 59m 43s
True Declination
0° 00' 00"
Sunlit
Object was in daylight at epoch
Visualization orbit readout
Latitude
Unknown
Longitude
Unknown
Altitude
Unknown
Speed
Unknown
Apparent Right ascension
Unknown
Apparent Declination
Unknown
Sunlit
N/A
Visualization observer readout
Local Sidereal Time
10:28:35
Azimuth
Unknown
Elevation
Unknown
Doppler factor
Unknown
Orbital elements
Apogee altitude
495.467 km
Perigee altitude
493.03 km
Semi-major axis
6,872.385 km
Eccentricity
0.00018
Inclination
97.368°
RAAN
164.9304°
Arg. of periapsis
94.8988°
True anomaly
265.22485°
Mean anomaly
265.2451°
Eccentric anomaly
265.23498°
Mean motion
3.80962 °/min
Orbital period
94.5 mins
BSTAR
-4.0951e-7
Loading maneuver chart data...
Computing Atmospheric mass density...
Loading historical data...
Loading historical data...
Loading historical data...
Loading historical data...
Loading historical data...
Loading historical data...
Loading historical data...

Documentation

Showing up to 5 results
|